Preview of NWS' New Version of Forecast
This preview is not operational and should not be used for support decisions.

Regional Weather Roundup (RWR)

Issued by National Weather Service (NWS)

                            
000
ASUS46 KPQR 230310
RWROR 

OREGON REGIONAL WEATHER ROUNDUP
NATIONAL WEATHER SERVICE PORTLAND OR
700 PM PST FRI FEB 22 2019

NOTE: "FAIR" INDICATES FEW OR NO CLOUDS BELOW 12,000 FEET WITH
NO SIGNIFICANT WEATHER AND/OR OBSTRUCTIONS TO VISIBILITY.

ORZ001>013-230400-
NORTHWEST OREGON

  
CITY           SKY/WX    TMP DP  RH WIND       PRES   REMARKS
ASTORIA        CLOUDY    40  36  86 W5        30.02R                  
TILLAMOOK      LGT RAIN  43  41  93 SE5       30.07R                  
NEWPORT        RAIN      45  43  93 CALM      30.10R                  
PORTLAND       LGT RAIN  41  37  86 CALM      30.05R FOG              
VANCOUVER WA   LGT RAIN  40  38  93 CALM      30.05R                  
SCAPPOOSE      LGT RAIN  40  37  89 CALM      30.04R                  
HILLSBORO      LGT RAIN  40  38  93 N5        30.04R                  
AURORA         LGT RAIN  41  39  93 S10       30.06R                  
MCMINNVILLE    LGT RAIN  41  38  89 SW8       30.04R                  
SALEM          RAIN      42  38  85 N6        30.06R FOG              
CORVALLIS      LGT RAIN  43  40  89 S9        30.07S                  
EUGENE         CLOUDY    45  35  68 S8        30.08R                  
$$

ORZ021-028-230400-
SOUTHWEST OREGON

  
CITY           SKY/WX    TMP DP  RH WIND       PRES   REMARKS
NORTH BEND     CLOUDY    47  39  74 SW9       30.16R                  
BROOKINGS      MOCLDY    42  37  82 CALM      30.20R                  
ROSEBURG       CLOUDY    48  33  56 SW5       30.14R                  
SEXTON SUMMIT    N/A     30  27  88 VRB7      30.05R                  
GRANTS PASS    CLOUDY    43  32  65 CALM      30.15                   
MEDFORD        CLOUDY    45  29  53 SW5       30.11R                  
$$

ORZ014>016-041-230400-
COLUMBIA GORGE

  
CITY           SKY/WX    TMP DP  RH WIND       PRES   REMARKS
TROUTDALE      LGT RAIN  40  37  89 SW6G20    30.05R FOG              
HOOD RIVER     LGT RAIN  36  32  87 W9        30.00R                  
THE DALLES     CLOUDY    37  30  75 NE5       29.98R                  
$$

ORZ029>031-041-044-049-050-061>064-502-503-505>511-230400-
EASTERN OREGON

  
CITY           SKY/WX    TMP DP  RH WIND       PRES   REMARKS
MADRAS         NOT AVBL                                               
REDMOND        MOCLDY    36  19  50 S10       29.94S WCI  28          
BEND           PTCLDY    34  18  51 SW17G24   29.93F WCI  23          
PRINEVILLE     CLOUDY    36  18  48 MISG      29.94                   
KLAMATH FALLS  CLOUDY    32  18  56 CALM      30.05R                  
LAKEVIEW       PTCLDY    19  11  70 S10       30.04R WCI   7          
HERMISTON      CLOUDY    37  26  64 N5        29.94R                  
PENDLETON      CLOUDY    39  24  55 S13       29.92R WCI  31          
JOHN DAY       CLOUDY    30  17  59 NE3       29.95                   
MEACHAM        FLURRIES  27  21  78 CALM      29.87F                  
LA GRANDE      FLURRIES  29  22  75 S15       29.98R WCI  18          
BAKER CITY     CLOUDY    29  21  72 CALM      29.96S                  
BURNS          CLOUDY    29  19  66 SE5       29.96R                  
ROME           NOT AVBL                                               
ONTARIO        MOCLDY    33  21  61 SE3       30.08R                  
$$